Wind_Speed
7 7 7 7 6 7 7 8 8 8 8 8 9 10 9 9 8 8 8 8 8 8 8 7 7 6 6 5 5 5 5 4 4 4 4 4 4 4 4 4 4 4 3 3 3 3 3 2 2
7 7 8 7 7 8 8 8 8 8 8 9 9 10 10 9 8 8 8 9 9 9 8 8 8 7 6 6 5 5 4 3 3 3 3 3 3 3 3 3 3 3 3 3 3 3 2 2 2
7 8 8 8 8 8 8 8 8 8 9 9 9 10 10 10 10 9 9 9 9 9 9 9 8 7 6 5 5 4 3 3 2 2 3 3 2 2 2 2 2 2 3 3 3 3 2 2 2
7 8 8 8 8 8 8 8 8 8 9 9 10 10 11 11 10 10 10 10 10 9 9 9 8 7 7 6 4 3 3 2 2 2 2 2 2 2 1 1 2 2 3 3 3 3 3 3 3
7 8 8 8 8 8 9 9 9 9 9 9 10 10 11 11 12 10 10 10 10 10 9 9 8 7 7 5 4 3 2 2 2 2 2 2 1 1 1 1 2 2 3 3 4 4 4 4 4
6 7 7 8 8 9 9 9 9 9 9 9 10 10 11 11 11 11 10 10 11 11 10 9 8 7 7 6 4 3 3 2 2 2 2 1 1 1 1 1 1 2 3 3 4 4 4 5 5
7 7 8 8 9 9 9 9 9 9 9 9 9 10 11 11 11 11 11 11 11 11 10 9 9 7 7 6 4 3 3 3 3 2 1 1 0 1 1 2 2 3 4 4 4 5 6 6 6
7 7 7 8 9 9 9 9 9 9 9 9 9 9 10 11 11 11 10 11 10 10 10 10 9 8 7 5 4 3 3 3 2 1 1 1 1 1 2 3 3 4 4 5 6 6 7 7 7
7 7 8 8 8 8 8 9 9 9 9 9 9 9 10 11 11 11 11 10 10 10 9 10 9 8 7 5 4 4 3 2 1 0 0 1 1 2 3 3 4 5 5 6 7 7 8 8 8
7 8 8 8 7 8 8 9 9 8 8 8 8 9 10 11 11 11 11 10 10 10 9 9 9 8 7 6 5 4 3 2 1 1 0 1 2 2 3 4 5 5 6 7 7 8 8 8 9
7 7 8 7 7 8 8 8 9 8 8 8 7 9 10 10 11 12 12 11 10 9 9 8 8 7 7 6 5 5 4 2 1 1 1 1 2 3 4 5 5 6 7 7 8 8 8 9 9
7 7 7 7 7 7 8 8 8 9 8 7 7 8 9 9 10 11 12 11 9 9 8 7 7 7 6 5 5 5 4 2 1 1 1 2 2 2 3 5 6 6 7 8 8 8 9 9 9
6 7 7 7 6 7 7 7 8 8 8 7 7 8 9 9 9 10 10 10 9 8 8 7 6 6 6 5 5 4 3 3 2 1 1 2 3 3 4 5 5 6 7 8 8 9 10 10 10
6 6 6 6 6 7 8 7 8 8 8 7 8 8 8 9 9 9 9 8 7 7 7 7 6 6 5 5 5 5 3 2 2 1 1 2 3 4 5 5 6 7 8 8 9 10 10 10 10
5 6 5 5 6 8 8 7 7 8 7 7 7 7 8 9 9 9 8 8 7 7 7 7 6 5 5 4 3 3 3 2 1 1 2 2 3 4 5 5 7 8 9 9 9 10 10 10 10
5 5 5 5 6 7 8 7 7 7 7 8 7 7 8 8 9 9 8 8 7 7 7 6 6 6 5 4 4 3 3 3 2 2 2 2 3 4 5 6 7 8 9 9 9 10 10 10 10
4 4 4 5 6 6 7 7 7 7 7 7 7 7 8 7 8 8 8 8 8 7 7 6 6 6 5 5 4 4 4 3 2 2 2 3 3 4 5 6 7 8 9 9 10 10 10 9 9
5 4 4 4 5 6 7 7 7 7 8 7 7 7 7 7 7 8 8 8 8 7 7 7 6 6 6 6 4 4 4 3 2 2 3 3 3 4 6 7 7 8 8 9 10 10 10 9 9
5 5 5 5 5 6 6 6 7 7 8 7 7 8 7 7 7 7 8 8 8 7 7 6 6 6 6 6 6 5 4 3 3 2 3 3 4 4 6 7 7 8 8 9 10 10 10 9 9
5 5 5 6 6 6 6 6 6 7 7 7 7 7 7 7 7 7 7 8 7 7 7 6 7 6 6 6 6 5 4 3 3 3 3 3 4 4 6 7 8 8 8 9 9 10 10 10 9
6 6 5 6 6 6 5 6 6 6 7 8 8 8 7 7 7 7 7 7 7 7 7 7 7 7 7 6 5 5 4 3 3 3 3 3 4 5 6 7 8 8 9 9 9 10 10 10 9
7 6 6 6 6 5 5 5 6 7 7 7 8 8 8 8 8 7 7 7 7 7 7 7 7 7 7 6 6 5 5 4 3 3 3 3 4 5 6 7 8 8 8 8 9 9 10 9 9
7 7 6 5 5 6 6 7 7 8 8 8 8 9 9 9 8 8 8 7 8 7 6 7 7 7 7 7 7 6 5 4 4 3 3 3 4 5 6 7 7 8 8 8 8 9 9 9 8
7 7 6 6 7 7 7 8 8 8 9 9 8 9 9 9 10 9 9 8 8 8 7 7 7 7 7 7 7 6 6 5 4 4 3 3 4 5 6 6 7 7 7 7 8 8 9 9 9
8 7 7 6 7 7 7 9 10 8 10 11 10 10 10 10 11 10 10 9 8 8 8 8 8 7 7 6 6 6 6 5 5 4 4 4 5 5 6 6 6 6 7 7 8 8 9 9 9
10 9 7 6 6 7 9 10 10 10 11 11 10 10 10 11 10 10 10 10 10 9 9 10 9 9 8 7 7 7 7 6 6 6 5 5 6 6 7 6 6 7 7 8 8 9 9 9 9
11 11 10 9 8 8 9 10 11 10 11 12 11 10 10 10 10 10 10 10 10 10 10 10 10 9 9 9 8 8 7 7 7 6 6 6 6 6 7 7 7 7 8 8 9 9 9 9 10
12 12 12 11 10 9 8 10 11 10 10 11 11 10 10 10 10 10 10 10 10 10 10 10 10 10 10 9 9 9 9 8 8 7 7 7 7 7 8 8 8 8 8 9 9 9 9 10 10
12 13 12 11 11 10 9 10 12 12 11 11 11 10 10 10 10 11 11 11 10 10 11 11 11 10 9 9 9 9 9 9 9 9 8 8 8 9 9 9 9 9 9 9 9 10 10 10 10
13 13 13 13 12 12 12 12 12 12 12 12 11 10 11 11 11 10 11 11 10 10 10 11 11 11 10 10 10 10 8 8 9 9 9 9 9 9 9 10 10 10 10 10 10 10 11 11 11
Wind_Direction
226 225 224 222 223 224 217 217 219 225 223 220 217 208 203 197 197 200 200 197 193 188 188 188 183 176 167 156 147 139 128 119 109 97 93 101 100 91 89 86 83 78 68 60 57 53 49 47 43
223 223 222 219 224 224 225 225 221 223 222 217 214 208 205 201 198 197 197 195 195 191 189 188 182 176 171 157 152 147 137 128 113 101 92 101 109 92 81 76 70 64 57 48 43 42 35 21 9
222 225 221 218 223 223 228 226 224 223 220 214 213 211 207 203 202 201 199 197 197 193 189 186 183 180 170 162 156 154 145 133 117 105 95 101 106 102 78 74 65 55 48 40 35 31 20 360 343
226 225 218 220 224 225 222 222 224 222 220 216 214 211 210 207 205 205 203 204 200 195 192 189 186 184 177 174 168 164 152 143 127 115 108 110 106 92 66 65 58 45 38 33 24 8 357 344 330
228 225 217 216 222 222 221 221 223 224 225 218 215 209 209 205 206 204 204 207 202 198 197 195 189 185 183 186 186 182 163 151 148 136 120 117 105 79 47 45 46 30 19 12 3 348 337 331 324
228 223 215 216 223 224 222 223 224 227 224 222 219 214 207 206 204 200 201 204 201 199 197 195 193 191 187 184 180 189 184 169 163 154 135 132 105 69 33 15 13 5 355 349 344 337 330 326 322
223 218 217 220 223 225 226 229 227 227 225 225 222 219 210 206 207 199 199 205 203 202 199 196 196 195 192 186 188 196 198 181 169 155 147 133 61 349 343 334 337 332 333 335 332 330 325 320 316
219 217 217 220 225 228 227 228 228 225 222 223 222 219 214 211 209 204 201 201 201 202 201 200 196 193 192 193 198 194 192 198 218 196 126 69 2 343 336 331 333 328 329 330 326 322 321 317 314
214 213 219 223 227 228 228 225 226 223 220 220 220 217 213 211 209 206 201 200 202 202 203 200 194 194 194 196 197 193 196 200 220 229 8 9 348 334 334 331 333 333 331 328 324 319 317 314 312
216 216 221 225 225 227 224 222 221 220 216 216 216 212 212 209 203 201 201 199 202 204 204 202 201 199 199 199 196 194 197 197 221 312 312 307 328 331 334 336 337 335 332 328 324 322 319 315 311
212 215 223 225 227 225 220 218 215 218 213 211 213 211 208 207 205 202 198 200 201 202 203 203 204 202 207 208 202 196 197 201 222 306 307 308 328 342 338 338 341 336 333 332 328 325 322 318 314
216 219 226 227 227 225 217 214 213 214 211 212 214 210 209 209 207 200 198 200 202 203 204 197 202 207 211 214 207 195 197 207 240 311 321 327 342 341 333 335 339 338 335 331 328 325 321 318 313
216 220 222 223 222 218 213 211 211 214 211 217 216 212 208 208 207 207 201 204 210 209 207 200 199 205 210 212 210 203 205 226 259 287 305 324 343 348 343 342 344 342 339 337 333 327 323 320 317
217 217 217 221 220 215 212 210 211 213 208 209 208 210 209 208 209 211 212 209 208 203 198 199 208 213 215 212 215 211 214 227 236 277 307 332 344 345 343 348 349 347 344 340 335 330 327 325 321
218 221 217 216 217 217 213 212 213 213 211 211 211 214 214 211 210 214 215 214 212 209 202 206 209 211 211 206 206 208 213 212 215 266 302 322 331 338 339 344 346 346 344 342 339 336 332 329 326
217 218 221 222 219 219 217 215 212 215 217 217 216 218 219 219 217 217 213 214 219 220 210 208 208 208 203 202 207 213 212 204 220 269 293 309 315 326 333 338 343 345 345 344 344 341 336 333 331
201 205 216 231 225 220 220 221 217 218 224 221 220 221 218 218 216 218 216 215 220 219 212 207 207 206 205 208 214 214 203 218 252 276 293 304 312 324 331 337 343 345 345 344 345 342 339 337 335
196 204 213 220 222 226 228 229 223 223 227 224 221 223 222 222 220 220 220 217 215 215 212 212 211 213 211 213 217 208 206 225 257 276 297 308 317 325 331 335 341 343 344 343 344 343 341 339 337
209 213 220 223 226 226 230 234 236 223 224 224 224 223 222 224 224 226 223 221 218 215 212 214 216 214 217 219 220 215 221 236 258 269 289 305 316 324 331 335 340 343 343 344 345 347 345 343 340
208 209 217 226 232 232 236 242 239 227 228 230 230 227 225 224 223 228 231 221 215 215 218 221 219 216 214 210 212 218 229 239 257 270 288 306 318 324 330 335 339 342 343 346 348 349 347 345 343
217 213 219 225 231 231 230 238 241 237 236 237 238 234 229 228 226 228 228 223 220 221 222 222 220 218 215 215 217 223 233 243 256 270 284 301 316 323 330 336 340 343 344 345 348 349 348 347 344
219 213 218 223 227 228 230 239 246 242 241 247 249 242 238 233 229 228 228 225 222 222 222 224 220 218 217 220 223 226 234 240 247 268 285 301 311 320 329 336 341 344 344 344 347 351 352 349 347
215 215 212 220 231 234 240 248 253 250 249 250 251 245 240 233 233 232 227 226 226 222 223 225 223 221 222 224 225 230 235 243 254 267 291 314 321 322 327 333 339 343 344 344 345 349 349 349 348
211 210 217 223 233 242 247 255 257 256 257 256 251 245 241 236 237 236 228 226 226 228 229 227 227 226 224 224 226 233 237 244 259 271 286 306 315 318 323 329 335 341 343 343 343 344 346 346 345
217 213 215 222 237 252 256 260 257 256 260 261 254 247 244 242 240 236 228 227 226 226 226 226 228 227 228 225 225 231 236 248 262 273 285 301 308 312 315 322 330 336 338 338 340 342 343 343 342
216 216 216 218 232 247 261 265 263 260 260 262 257 248 248 248 243 238 231 229 226 224 223 225 229 231 234 234 235 240 246 257 266 270 280 292 298 305 310 316 321 325 327 327 329 332 336 338 338
217 217 216 220 221 237 256 268 270 266 262 259 257 250 250 248 242 239 237 232 228 226 225 226 230 232 237 240 239 243 253 261 266 268 277 285 294 302 307 313 316 318 321 323 324 325 327 329 330
227 222 218 217 226 234 249 267 273 270 265 259 256 251 246 245 239 235 235 232 229 228 228 230 235 236 238 238 241 246 251 258 260 269 279 282 289 297 301 306 308 310 312 315 317 320 320 323 325
229 227 227 230 231 234 241 253 267 273 267 259 254 250 244 243 238 235 234 232 232 233 232 233 237 239 240 240 244 245 252 258 262 270 278 282 288 292 298 303 306 306 307 309 311 314 317 319 321
231 231 230 232 236 237 245 257 261 267 265 258 253 250 247 245 241 236 235 235 234 234 234 235 238 240 241 243 245 247 251 257 265 271 276 280 287 292 297 301 304 306 307 308 308 310 313 315 315
Height
5863 5864 5865 5867 5868 5869 5869 5870 5870 5871 5873 5874 5875 5876 5877 5879 5881 5884 5883 5883 5885 5886 5887 5888 5889 5890 5891 5891 5892 5893 5893 5893 5893 5893 5893 5893 5893 5893 5893 5893 5893 5893 5893 5893 5893 5892 5892 5892 5892
5862 5863 5865 5866 5867 5867 5868 5868 5870 5871 5872 5873 5874 5876 5877 5878 5880 5881 5882 5883 5885 5886 5887 5888 5889 5890 5891 5891 5892 5893 5893 5893 5894 5894 5894 5894 5894 5894 5894 5894 5894 5893 5893 5893 5893 5893 5892 5892 5892
5861 5862 5864 5865 5865 5866 5867 5868 5869 5870 5871 5872 5874 5875 5877 5878 5879 5880 5882 5883 5885 5886 5887 5888 5889 5890 5891 5892 5893 5893 5894 5894 5894 5894 5894 5894 5894 5894 5895 5894 5894 5894 5894 5894 5893 5893 5893 5893 5892
5860 5862 5863 5864 5864 5865 5866 5867 5868 5869 5871 5872 5873 5875 5876 5877 5878 5880 5881 5883 5884 5886 5887 5888 5889 5890 5891 5892 5893 5894 5894 5894 5894 5894 5895 5895 5895 5895 5895 5895 5895 5894 5894 5894 5894 5893 5893 5893 5892
5859 5860 5862 5862 5862 5864 5865 5866 5867 5869 5870 5871 5873 5874 5875 5877 5878 5879 5881 5883 5884 5886 5887 5888 5889 5890 5891 5892 5893 5894 5894 5894 5895 5895 5895 5895 5895 5895 5895 5895 5895 5895 5895 5894 5894 5893 5893 5892 5892
5858 5859 5860 5861 5862 5863 5864 5865 5866 5868 5869 5870 5872 5873 5874 5876 5877 5879 5880 5882 5884 5885 5886 5888 5889 5890 5891 5892 5893 5894 5894 5895 5895 5895 5895 5895 5896 5896 5896 5895 5895 5895 5895 5894 5894 5893 5893 5892 5892
5858 5858 5859 5860 5861 5862 5864 5864 5866 5867 5868 5870 5872 5873 5874 5875 5877 5878 5880 5881 5883 5885 5886 5887 5889 5890 5891 5892 5893 5894 5894 5895 5895 5895 5896 5896 5896 5896 5896 5895 5895 5895 5894 5894 5893 5893 5892 5892 5891
5856 5858 5858 5859 5860 5861 5863 5864 5865 5867 5868 5870 5871 5872 5873 5875 5876 5878 5879 5881 5882 5884 5886 5887 5889 5890 5891 5892 5893 5894 5894 5895 5895 5896 5896 5896 5896 5896 5896 5895 5895 5894 5894 5894 5893 5892 5892 5891 5890
5855 5858 5858 5858 5859 5861 5862 5863 5864 5866 5867 5869 5870 5872 5873 5874 5875 5877 5879 5880 5882 5884 5885 5887 5889 5890 5891 5892 5893 5894 5894 5895 5895 5896 5896 5896 5896 5896 5896 5895 5895 5894 5893 5893 5892 5891 5891 5890 5889
5855 5856 5857 5858 5859 5860 5861 5863 5864 5865 5867 5868 5869 5871 5872 5874 5875 5877 5878 5880 5882 5884 5885 5887 5888 5890 5891 5892 5893 5894 5894 5895 5895 5896 5896 5896 5896 5896 5895 5895 5894 5894 5893 5892 5891 5890 5889 5889 5888
5854 5855 5856 5857 5858 5859 5861 5862 5863 5865 5866 5868 5869 5870 5872 5873 5874 5876 5878 5880 5881 5883 5885 5886 5888 5890 5891 5892 5893 5894 5894 5895 5895 5896 5896 5896 5896 5895 5895 5894 5894 5893 5892 5891 5890 5889 5888 5887 5886
5854 5855 5855 5857 5858 5859 5860 5862 5863 5864 5866 5867 5869 5870 5871 5872 5874 5876 5877 5879 5880 5882 5884 5886 5887 5889 5890 5891 5892 5893 5894 5895 5895 5895 5896 5895 5895 5895 5895 5894 5893 5892 5891 5890 5889 5888 5887 5886 5885
5853 5854 5855 5856 5857 5859 5860 5861 5863 5864 5865 5866 5868 5869 5871 5872 5873 5875 5877 5879 5880 5882 5884 5885 5887 5888 5890 5891 5892 5893 5894 5894 5895 5895 5895 5895 5895 5895 5894 5894 5893 5892 5891 5889 5888 5887 5886 5884 5883
5853 5854 5855 5856 5857 5858 5860 5861 5863 5864 5865 5866 5868 5869 5870 5872 5873 5875 5876 5878 5880 5881 5883 5885 5887 5888 5889 5890 5891 5892 5893 5894 5894 5894 5895 5895 5895 5894 5894 5893 5892 5891 5890 5889 5887 5886 5885 5883 5882
5853 5854 5855 5856 5857 5858 5860 5861 5862 5863 5865 5866 5867 5869 5870 5871 5873 5874 5876 5878 5879 5881 5882 5884 5886 5887 5889 5890 5891 5891 5892 5893 5894 5894 5894 5894 5894 5894 5894 5893 5892 5891 5889 5888 5886 5885 5883 5882 5880
5853 5854 5855 5856 5857 5858 5861 5861 5862 5863 5865 5866 5868 5869 5870 5871 5873 5874 5876 5877 5879 5880 5882 5884 5885 5887 5888 5889 5890 5891 5892 5893 5893 5894 5894 5894 5894 5894 5893 5892 5891 5890 5889 5887 5886 5884 5882 5881 5879
5853 5854 5855 5856 5857 5858 5860 5861 5862 5863 5864 5866 5867 5869 5870 5871 5872 5874 5875 5877 5879 5880 5882 5883 5885 5886 5887 5889 5890 5891 5892 5892 5893 5893 5893 5893 5893 5893 5893 5892 5891 5889 5888 5886 5885 5883 5882 5880 5878
5853 5854 5855 5856 5857 5858 5859 5861 5861 5863 5864 5865 5867 5868 5870 5871 5872 5873 5875 5876 5878 5880 5881 5883 5884 5885 5887 5888 5889 5890 5891 5892 5892 5893 5893 5893 5893 5892 5892 5891 5890 5889 5887 5886 5884 5883 5881 5879 5878
5852 5854 5855 5856 5857 5858 5859 5860 5861 5862 5864 5865 5866 5868 5869 5870 5871 5873 5874 5875 5877 5879 5880 5882 5883 5885 5886 5887 5889 5890 5891 5891 5892 5892 5892 5892 5892 5892 5891 5890 5889 5888 5887 5885 5884 5882 5880 5879 5877
5852 5853 5854 5856 5856 5858 5859 5860 5861 5862 5863 5865 5866 5867 5868 5870 5871 5872 5873 5875 5876 5878 5879 5881 5882 5884 5885 5887 5888 5889 5890 5890 5891 5891 5892 5892 5891 5891 5890 5890 5888 5887 5886 5884 5883 5881 5880 5878 5876
5851 5853 5854 5855 5856 5857 5858 5859 5860 5862 5863 5864 5865 5866 5867 5869 5870 5871 5872 5874 5876 5877 5878 5880 5881 5883 5884 5886 5887 5888 5889 5890 5890 5891 5891 5891 5891 5890 5890 5889 5888 5886 5885 5884 5882 5881 5879 5878 5876
5851 5852 5853 5854 5855 5857 5858 5859 5860 5861 5862 5863 5864 5865 5866 5868 5869 5870 5871 5873 5874 5876 5877 5879 5880 5882 5883 5884 5886 5887 5888 5889 5890 5890 5890 5890 5890 5889 5889 5888 5887 5886 5885 5883 5882 5880 5879 5877 5876
5851 5852 5853 5854 5855 5856 5857 5858 5860 5859 5861 5862 5863 5864 5865 5866 5868 5869 5870 5872 5873 5875 5876 5878 5879 5881 5882 5883 5885 5886 5887 5888 5889 5889 5889 5889 5889 5889 5888 5887 5886 5885 5884 5883 5881 5880 5878 5877 5876
5850 5851 5852 5853 5854 5856 5857 5858 5859 5859 5860 5861 5862 5863 5864 5865 5866 5868 5869 5870 5872 5873 5875 5876 5878 5880 5881 5882 5884 5885 5886 5887 5888 5888 5888 5888 5888 5888 5887 5887 5886 5884 5883 5882 5881 5880 5878 5877 5875
5849 5851 5852 5853 5854 5855 5856 5856 5858 5857 5858 5859 5861 5862 5862 5863 5865 5866 5867 5869 5870 5872 5873 5875 5877 5878 5880 5881 5882 5884 5885 5886 5886 5887 5887 5887 5887 5887 5887 5886 5885 5884 5883 5882 5881 5879 5878 5876 5875
5847 5849 5851 5853 5854 5855 5855 5855 5856 5856 5857 5857 5858 5859 5860 5862 5863 5864 5866 5867 5869 5870 5872 5873 5875 5877 5878 5880 5881 5882 5883 5884 5885 5885 5886 5886 5886 5886 5885 5885 5884 5883 5882 5881 5880 5878 5877 5875 5874
5846 5847 5849 5851 5852 5853 5853 5854 5854 5854 5855 5856 5856 5857 5859 5860 5861 5862 5864 5865 5867 5868 5870 5872 5873 5875 5876 5878 5879 5880 5882 5882 5883 5883 5884 5884 5884 5884 5884 5883 5883 5882 5881 5880 5879 5877 5876 5875 5873
5844 5846 5847 5849 5850 5851 5852 5852 5852 5852 5853 5854 5854 5855 5857 5858 5859 5860 5862 5863 5865 5866 5868 5870 5871 5873 5874 5876 5877 5879 5880 5880 5881 5881 5882 5882 5882 5882 5882 5882 5881 5880 5879 5878 5877 5876 5875 5873 5872
5842 5843 5844 5846 5847 5849 5850 5852 5850 5850 5851 5852 5852 5854 5855 5856 5857 5858 5860 5861 5863 5864 5866 5868 5869 5871 5872 5874 5875 5876 5877 5878 5879 5880 5880 5880 5880 5880 5880 5879 5879 5878 5877 5877 5875 5874 5873 5872 5870
5839 5840 5842 5844 5845 5846 5847 5850 5848 5848 5848 5849 5850 5851 5852 5854 5855 5856 5858 5859 5861 5863 5864 5866 5867 5869 5870 5872 5873 5874 5875 5876 5877 5877 5878 5878 5878 5878 5878 5877 5877 5876 5875 5875 5874 5872 5871 5870 5868